Location: La Comballaz
(46.3780°N, 7.0817°E)
Time: 09:21:24
(UTC+00:00)

SL-8 Rocket - Pass Details

Date: 09 April 2020
Orbit: 958 x 990 km, 82.9° (Epoch: 23 May)

Event Time Altitude Azimuth Distance (km) Brightness Sun altitude
Rises 19:21:50 0° 355° (N) 3,709 7.5 -12.2°
Reaches altitude 10° 19:24:30 10° 2° (N) 2,759 6.7 -12.6°
Maximum altitude 19:30:34 46° 75° (ENE) 1,311 4.4 -13.6°
Enters shadow 19:35:13 17° 142° (SE) 2,284 5.4 -14.3°
